Location: Beyerberg
(49.1126°N, 10.5053°E)
Time: 10:15:35
(UTC+00:00)

Daily predictions for brighter satellites

Satellite Brightness Start Highest point End
(mag) Time Altitude Azimuth Time Altitude Azimuth Time Altitude Azimuth
In-Cosmos 22 Rocket 4.2 18:38:20 10° N 18:43:47 75° ENE 18:49:20 10° SSE
Cosmos 1025 Rocket 3.8 18:40:08 10° NNW 18:44:26 57° W 18:48:43 10° S
PAYLOAD B 4.4 18:39:38 10° SSE 18:45:11 80° WSW 18:50:49 10° NNW
Cosmos 2181 Rocket 4.0 18:40:11 10° S 18:46:21 79° E 18:52:41 10° NNE
SL-08 R/B 4.5 18:42:22 10° N 18:46:55 50° WNW 18:51:32 10° SW
Okean 2 Rocket 4.4 18:43:48 10° SE 18:47:14 22° E 18:50:40 10° NE
CZ-4C R/B 3.9 18:43:05 10° NW 18:48:57 34° NNE 18:56:02 10° E
Cosmos 1992 Rocket 4.0 18:43:50 10° S 18:49:00 68° ESE 18:54:12 10° NNE
MOS 1-B 4.4 18:43:22 10° SSE 18:49:08 73° ENE 18:54:56 10° NNW
SPOT 5 4.3 18:47:49 10° ESE 18:52:08 26° ENE 18:56:23 10° N
Cosmos 2297 Rocket 3.3 18:48:31 10° NNW 18:53:31 31° NE 18:58:28 10° ESE
Cosmos 2369 Rocket 3.4 18:52:06 10° SW 18:57:35 48° NW 19:03:04 10° NNE
Cosmos 1503 Rocket 4.4 18:52:27 10° NNW 18:57:42 49° ENE 19:02:53 10° SE
Meteor 1-11 4.3 18:54:35 10° N 19:00:18 85° E 19:06:02 10° SSE
BlueWalker 3 3.0 18:58:09 10° SSW 19:01:16 24° SE 19:04:23 10° E
Terra 3.5 19:01:45 10° E 19:04:52 18° ENE 19:07:59 10° NNE
ATLAS 5 CENTAUR R/B 0.9 19:02:16 10° SW 19:05:36 84° SE 19:09:22 10° NE
PSLV R/B 3.7 19:04:14 10° SSE 19:07:57 87° E 19:11:46 10° NNW
Cosmos 2098 Rocket 3.0 19:03:30 10° S 19:08:14 86° E 19:12:06 10° N
CARTOSAT-1 3.5 19:04:24 10° SSE 19:08:39 77° ENE 19:12:57 10° N
Cosmos 1455 4.0 19:07:21 10° SW 19:10:36 33° WNW 19:13:52 10° N
Sich 1 Rocket 4.2 19:06:38 10° SSE 19:10:38 35° E 19:14:43 10° NNE
Okean 1 Rocket 4.3 19:07:14 10° SE 19:10:44 23° E 19:14:16 10° NE
Cosmos 1932 4.5 19:09:19 10° NW 19:15:37 86° NE 19:21:31 11° SE
Cosmos 1975 Rocket 4.0 19:11:28 10° NNW 19:15:40 49° W 19:19:49 10° SSW
Okean-O 2.8 19:11:25 10° SSE 19:15:42 53° ENE 19:20:01 10° N
CZ-4B R/B 3.8 19:12:19 10° S 19:17:52 60° WSW 19:23:23 10° NNW
Cosmos 2263 Rocket 4.3 19:16:21 10° N 19:19:36 15° NNE 19:22:50 10° ENE
Ariane Rocket 4.4 19:16:22 12° ESE 19:19:48 23° ENE 19:23:45 10° N
CZ-4C R/B 3.5 19:18:09 10° NNE 19:21:20 35° E 19:24:28 10° SSE
Nadezhda 3 Rocket 3.9 19:16:26 10° S 19:22:32 70° E 19:28:43 10° NNE
Cosmos 1821 Rocket 4.2 19:17:02 10° NNW 19:23:12 73° W 19:29:16 10° S
SL-27 R/B 3.8 19:21:32 10° NW 19:24:07 29° WSW 19:26:39 10° SSW
Genesis I 3.1 19:20:44 10° NW 19:24:21 64° NE 19:26:55 18° SE
USA 186 3.3 19:21:40 10° SSW 19:24:27 33° W 19:27:14 10° NNW
Cosmos 44 4.4 19:20:52 10° SSE 19:25:17 26° ESE 19:29:40 10° ENE
BREEZE-M R/B 1.6 19:23:37 10° W 19:26:13 83° SSW 19:27:39 22° ESE
USA 267 3.4 19:19:44 10° NE 19:26:19 79° NNW 19:32:51 10° WSW
Okean O Rocket 2.1 19:26:13 10° S 19:30:31 60° WSW 19:34:53 10° NNW
Aureole 1 Rocket 4.4 19:31:59 10° NNE 19:33:32 13° NE 19:34:29 12° ENE
CZ-4 R/B 3.8 19:32:47 10° SW 19:35:49 22° W 19:38:51 10° NW
Cosmos 1536 Rocket 3.5 19:37:23 10° N 19:41:50 86° E 19:45:49 13° S
SJ 16-02 4.2 19:41:00 10° WNW 19:42:46 12° W 19:44:32 10° WSW
Resurs 01 Rocket 2.8 19:41:11 10° S 19:45:22 42° W 19:49:36 10° NNW
IRS-1C Rocket 4.1 19:42:38 16° SSE 19:46:49 68° ENE 19:52:05 10° N
MOS 1 4.3 19:43:34 12° SSE 19:48:55 89° E 19:54:41 10° NNW
CENTAUR R/B 3.9 19:42:53 10° NW 19:50:13 43° NNE 19:57:39 14° E
NOSS 3-1 (A) 3.1 19:47:09 10° SW 19:52:09 86° NW 19:58:17 10° NE
Celestis-02/Orion 38 4.5 19:48:37 20° SE 19:52:10 82° ENE 19:57:17 10° NNW
ERS-1 Rocket 3.2 19:51:26 22° SE 19:54:25 52° ENE 19:59:18 10° N
SPOT 3 Rocket 4.1 19:55:09 23° ESE 19:57:51 41° ENE 20:02:43 10° N
Tiangong 0.2 19:56:37 10° SSW 19:57:17 13° SSW 19:57:17 13° SSW
Cosmos 1934 Rocket 4.0 19:54:31 10° N 20:00:42 85° W 20:06:25 13° S
USA 229 DEB 3.7 19:55:14 10° SSW 20:01:04 49° ESE 20:07:29 10° NE
USA 229 3.7 19:55:21 10° SSW 20:01:11 48° ESE 20:07:35 10° NE
Cosmos 2151 Rocket 3.9 19:58:27 10° SSW 20:02:49 67° WNW 20:07:16 10° N
Cosmos 1339 Rocket 4.4 19:56:42 10° S 20:02:51 86° E 20:08:58 10° N
USA 234 4.1 19:58:35 15° SSE 20:03:35 41° SW 20:09:43 10° WNW
USA 281 3.6 19:59:02 12° S 20:05:06 59° WSW 20:11:37 10° NNW
ATLAS CENTAUR R/B 2.4 20:05:12 10° NNW 20:08:35 31° NE 20:09:58 24° E
Cosmos 2227 Rocket 2.5 20:03:57 10° NNW 20:09:32 54° NE 20:12:21 28° ESE
Cosmos 1980 Rocket 3.8 20:13:32 16° E 20:13:32 16° E 20:16:01 10° ENE
Iridium 2 3.9 20:10:07 10° NNW 20:12:58 46° W 20:14:17 26° SSW
Cosmos 1892 Rocket 3.6 20:12:31 10° N 20:16:49 59° ENE 20:18:10 39° SE
SL-4 R/B 1.5 20:13:35 10° WNW 20:17:11 84° NNE 20:17:57 52° E
Cosmos 371 Rocket 4.4 20:13:10 10° NW 20:17:38 39° WSW 20:21:07 15° SSW
Landsat 4 3.6 20:17:01 37° S 20:18:16 72° WSW 20:21:48 10° NNW
MetOp-B 4.4 20:15:38 18° S 20:19:35 66° WSW 20:24:56 10° NNW
Cosmos 1697 Rocket 3.1 20:18:57 30° SSE 20:20:51 39° ESE 20:26:05 10° NE
Cosmos 2360 4.3 20:17:18 15° S 20:21:57 53° ESE 20:27:29 10° NE
Okean 2 Rocket 4.2 20:20:40 10° SSW 20:24:58 44° WNW 20:29:18 10° N
COSMOS 2455 2.8 20:18:59 10° NW 20:25:04 87° SW 20:27:59 33° SSE
ATLAS 3B R/B 3.4 20:19:11 10° WSW 20:26:19 62° NW 20:33:57 10° NE
SPOT 5 3.6 20:26:04 19° S 20:29:49 56° W 20:34:59 10° NNW
MetOp-A 3.8 20:30:40 39° E 20:30:57 40° ENE 20:34:32 10° N
NOSS 8 (H) 4.3 20:28:00 10° NW 20:31:07 90° SW 20:31:30 70° SE
Cosmos 405 Rocket 2.5 20:33:26 65° SE 20:33:44 69° E 20:37:26 10° NNE
Cosmos 1898 Rocket 3.9 20:29:22 10° NNW 20:34:30 50° ENE 20:36:04 37° ESE
Cosmos 2297 Rocket 2.6 20:32:21 10° NW 20:37:53 57° WSW 20:40:35 30° S
CZ-4C R/B 3.0 20:31:19 10° NW 20:38:20 83° NE 20:42:37 33° SE
Spot 2 Rocket 3.4 20:36:25 37° SSE 20:38:28 86° WSW 20:43:33 10° NNW
BlueWalker 3 1.9 20:35:21 10° WSW 20:39:10 83° NNW 20:40:37 37° ENE
USA 81 4.2 20:38:46 42° SE 20:40:03 53° E 20:45:10 10° NNE
ARIANE 5 R/B 4.2 20:39:49 21° ENE 20:40:23 21° ENE 20:43:45 10° NNE
Terra 1.9 20:40:08 37° S 20:41:56 73° WSW 20:46:41 10° NNW
Cosmos 1656 4.0 20:38:33 10° SW 20:44:05 65° WNW 20:49:34 10° NNE
Cosmos 1455 Rocket 2.9 20:46:45 49° S 20:47:55 89° E 20:52:20 10° N
Okean 1 Rocket 4.3 20:44:07 10° SW 20:48:19 41° WNW 20:52:35 10° N
Spot 1 4.1 20:43:40 10° NNE 20:48:20 69° ESE 20:49:03 58° SSE
USA 245 4.4 20:46:55 28° SSW 20:49:21 52° WSW 20:53:38 10° NNW
ATLAS 5 CENTAUR R/B 4.0 20:47:28 10° WNW 20:50:06 19° NNW 20:53:02 10° NNE
Cosmos 332 Rocket 4.3 20:45:32 10° NNW 20:50:15 52° WSW 20:51:53 36° SSW
Cosmos 1459 Rocket 4.2 20:44:29 10° N 20:50:24 52° ENE 20:52:04 41° ESE
Cosmos 2219 3.3 20:47:20 10° NNW 20:52:59 65° ENE 20:54:33 46° ESE
Ariane Rocket 3.4 20:56:30 36° SSW 20:58:22 58° WSW 21:03:22 10° NNW
Cosmos 1437 Rocket 3.2 20:56:05 10° NNW 20:59:54 53° W 21:00:22 50° SW
Cosmos 1763 Rocket 3.5 20:57:45 23° SSW 21:00:55 77° WNW 21:06:06 10° NNE
Cosmos 2263 Rocket 2.5 20:59:18 10° NNW 21:04:50 55° NE 21:06:06 45° E
Cosmos 44 3.9 21:00:46 10° SW 21:06:09 65° NW 21:11:26 10° NE
USA 267 4.2 21:02:44 10° ENE 21:08:57 47° N 21:15:10 10° W
ARGOS Delta rocket 4.3 21:08:36 44° SSW 21:10:14 68° W 21:15:43 10° NNW
Cosmos 2082 3.9 21:05:43 10° NNW 21:11:20 61° ENE 21:12:29 50° ESE
Cosmos 2173 Rocket 3.9 21:08:53 10° N 21:15:19 81° E 21:17:01 52° SSE
NOSS 3-2 (A) 4.2 21:09:11 10° NW 21:16:21 67° NE 21:19:58 36° ESE
Aureole 1 Rocket 4.1 21:14:07 10° NW 21:15:56 27° WNW 21:15:56 27° WNW
Meteor 2-3 Rocket 3.7 21:13:08 10° N 21:18:48 68° ENE 21:19:41 58° ESE
Cosmos 540 Rocket 3.6 21:18:45 38° SW 21:20:39 72° WNW 21:25:48 10° NNE
Cosmos 1606 4.2 21:23:39 28° NNE 21:23:39 28° NNE 21:25:36 10° NNE
MOS 1 Rocket 3.5 21:25:22 50° WSW 21:25:35 51° W 21:29:52 10° NNW
Cosmos 2058 3.6 21:22:39 10° NNW 21:26:27 47° W 21:26:27 47° W
Meteor 2-15 4.3 21:22:39 10° N 21:28:50 82° E 21:29:59 61° SSE
Cosmos 1626 Rocket 3.6 21:24:50 10° NNW 21:29:06 74° WNW 21:29:06 74° WNW
Cosmos 372 Rocket 3.9 21:26:29 10° NNW 21:31:43 73° WSW 21:32:09 69° SSW
Meteor 2-15 Rocket 4.4 21:26:00 10° N 21:32:08 67° ENE 21:33:02 59° ESE
Cosmos 468 Rocket 4.4 21:31:31 35° SW 21:33:33 61° WNW 21:38:45 10° NNE
Cosmos 1864 Rocket 4.3 21:28:32 10° N 21:34:44 76° E 21:35:41 63° SE
Cosmos 1802 Rocket 3.9 21:31:29 10° N 21:37:48 87° E 21:38:59 62° SSE
SL-16 R/B 4.0 21:41:08 17° ENE 21:41:08 17° ENE 21:43:13 10° NE
CENTAUR R/B 3.2 21:33:33 10° NW 21:41:46 81° SW 21:44:48 48° SSE
Cosmos 1869 4.3 21:43:56 42° N 21:43:56 42° N 21:46:39 10° N
Cosmos 841 Rocket 3.3 21:43:35 82° ENE 21:43:35 82° ENE 21:48:36 10° NNE
Cosmos 2016 Rocket 3.8 21:38:56 10° N 21:45:06 84° E 21:45:55 68° SSE
ATLAS CENTAUR R/B 2.9 21:42:54 10° NW 21:45:04 27° W 21:45:04 27° W
Intercosmos 25 4.4 21:44:10 10° NNW 21:48:13 40° WNW 21:48:13 40° WNW
Cosmos 1544 Rocket 4.1 21:49:27 54° WNW 21:49:27 54° WNW 21:53:27 10° N
Cosmos 1844 Rocket 3.9 21:44:11 10° NNW 21:49:11 32° NE 21:50:30 28° ENE
USA 229 DEB 4.5 21:45:58 10° WSW 21:52:02 49° NW 21:58:48 10° NE
USA 229 4.4 21:46:03 10° WSW 21:52:08 49° NW 21:58:53 10° NE
Cosmos 2100 Rocket 4.4 21:46:30 10° NNW 21:52:41 55° W 21:54:16 44° SW
H-2A R/B 3.5 21:54:16 38° N 21:54:16 38° N 21:56:44 10° N
Cosmos 2227 Rocket 3.5 21:48:29 10° NW 21:53:17 29° WSW 21:54:10 28° WSW
Cosmos 1980 Rocket 2.1 21:55:13 75° SW 21:55:43 85° WNW 22:01:25 10° NNE
Cosmos 967 Rocket 4.3 21:53:29 10° NW 22:00:00 88° SW 22:00:44 72° SSE
Cosmos 1937 Rocket 4.1 21:58:44 10° NW 22:03:46 45° WSW 22:03:46 45° WSW
Okean 1-7 Rocket 4.3 22:00:16 10° NNW 22:04:09 49° WNW 22:04:09 49° WNW
Cosmos 1697 Rocket 3.8 22:00:32 16° WSW 22:04:48 41° NW 22:10:11 10° NNE
Cosmos 2123 Rocket 4.0 22:05:45 60° SW 22:06:53 75° W 22:13:15 10° N
Cosmos 2151 4.3 22:03:47 10° N 22:06:35 33° NNE 22:06:35 33° NNE
Meteor 1-27 4.1 22:10:41 82° ENE 22:10:41 82° ENE 22:16:06 10° NNE
CZ-2C R/B 4.1 22:06:32 10° N 22:10:47 66° NNW 22:10:47 66° NNW
Cosmos 2228 4.1 22:14:50 40° NW 22:14:50 40° NW 22:18:12 10° N
ARIANE 5 R/B 3.5 22:17:17 46° WNW 22:17:17 46° WNW 22:20:51 10° NNW
BlueWalker 3 4.4 22:14:02 10° WNW 22:15:07 17° WNW 22:15:07 17° WNW
CZ-4C R/B 4.0 22:20:13 10° WNW 22:26:35 31° WSW 22:27:43 30° SW
Cosmos 2227 4.2 22:22:11 10° NNW 22:27:45 84° N 22:27:45 84° N
Cosmos 2369 3.9 22:27:49 60° W 22:28:25 64° WNW 22:34:04 10° NNE
Lacrosse 4 Rocket 3.4 22:33:41 22° NE 22:33:41 22° NE 22:35:12 10° NE
NOSS 3-2 (C) 4.0 22:25:13 10° NW 22:32:34 86° NE 22:34:32 58° SE
H-2A R/B 4.0 22:29:03 10° NNE 22:30:48 21° NE 22:30:48 21° NE
ALOS 2 3.5 22:35:57 46° N 22:35:57 46° N 22:39:07 10° NNW
Cosmos 2233 Rocket 4.0 22:28:54 10° NNW 22:35:00 65° W 22:35:19 64° WSW
Cosmos 2061 Rocket 4.4 22:35:11 10° NNW 22:41:26 53° W 22:42:00 52° WSW
Cosmos 1447 Rocket 4.3 22:42:34 88° SSE 22:42:38 89° ESE 22:48:49 10° N
Cosmos 1814 Rocket 4.3 22:45:04 64° N 22:45:04 64° N 22:49:28 10° NNE
Cosmos 1464 Rocket 4.3 22:38:18 10° N 22:44:35 55° ENE 22:44:59 54° E
Cosmos 2058 Rocket 4.4 22:47:28 35° NNE 22:47:28 35° NNE 22:50:05 10° NNE
Cosmos 2263 Rocket 3.6 22:43:45 10° NW 22:47:47 27° W 22:47:47 27° W
Cosmos 2360 Rocket 3.4 22:51:06 30° ENE 22:51:06 30° ENE 22:54:40 10° NE
USA 267 4.1 22:45:04 10° E 22:51:19 49° N 22:57:34 10° WNW
SL-19 R/B 4.3 22:46:06 10° NNE 22:51:47 81° WNW 22:51:47 81° WNW
Cosmos 909 Rocket 4.4 22:55:34 67° S 22:56:37 75° ESE 23:05:49 10° NE
Cosmos 1891 Rocket 4.3 22:53:02 10° N 22:59:15 89° W 22:59:17 89° SW
Meteor 1-20 Rocket 4.4 22:53:47 10° N 22:59:08 63° ENE 22:59:08 63° ENE
Cosmos 1513 Rocket 4.3 22:53:32 10° N 22:59:38 86° ENE 22:59:38 86° ENE
Cosmos 2333 Rocket 3.3 23:03:47 32° ENE 23:03:47 32° ENE 23:07:35 10° NE
Cosmos 2322 Rocket 2.8 23:04:00 46° ENE 23:04:00 46° ENE 23:08:18 10° NE
Lacrosse 5 3.6 23:05:57 24° ENE 23:05:57 24° ENE 23:08:01 10° ENE
Cosmos 2219 Rocket 3.9 23:05:42 22° E 23:05:42 22° E 23:08:43 10° NE
Cosmos 2034 Rocket 4.3 23:00:38 10° N 23:06:42 55° ENE 23:07:00 54° E
Meteor 1-25 Rocket 4.4 23:05:48 10° N 23:11:03 64° NE 23:11:03 64° NE
Cosmos 1809 Rocket 4.4 23:21:05 80° W 23:21:06 80° W 23:27:20 10° N
SL-16 R/B 2.3 23:22:57 72° NNW 23:22:57 72° NNW 23:28:21 10° NNE
Cosmos 1844 4.0 23:18:31 10° NNW 23:23:28 62° WNW 23:23:28 62° WNW
CENTAUR R/B 4.4 23:25:10 10° WNW 23:31:49 26° WSW 23:31:56 26° WSW
USA 238 DEB 3.8 23:24:58 10° NW 23:32:18 76° SW 23:32:57 71° SSW
USA 238 3.8 23:25:04 10° NW 23:32:24 76° SW 23:33:05 71° S
Cosmos 1125 Rocket 4.4 23:28:05 10° NNW 23:31:49 41° WNW 23:31:49 41° WNW
Cosmos 1844 Rocket 3.3 23:27:54 10° NW 23:32:08 45° WNW 23:32:08 45° WNW
Cosmos 158 Rocket 4.4 23:41:25 54° NNE 23:41:25 54° NNE 23:45:19 10° NNE
Cosmos 1980 Rocket 4.3 23:36:55 12° W 23:40:35 21° NW 23:44:49 10° N
Timation 2 Rocket 4.1 23:42:13 10° NW 23:48:19 63° W 23:48:19 63° W
Meteor 2-2 Rocket 4.3 23:48:58 79° ENE 23:48:58 79° ENE 23:54:45 10° NNE
Cosmos 1816 Rocket 4.3 23:51:35 81° W 23:51:38 81° W 23:57:48 10° N
